"read_dt","SO2 (ppb)","flags","PMT voltage (V)","lamp voltage (V)","lamp intensity (Hz)","internal temp (C)","react chamber temp (C)","sample flow (l/min)","pres (mmHg)","SO2 bkg (ppb)","SO2 coefficient"
2014-04-19 00:00:00,3015E-2,5C000410,-0724,1060,9901,025.2,045.2,0.000,758.3,01.16,0.508
2014-04-19 00:01:00,3008E-2,5C000410,-0724,1060,9876,025.2,045.2,0.000,758.3,01.16,0.508
2014-04-19 00:02:00,3047E-2,5C000410,-0724,1061,9938,025.2,045.2,0.000,758.3,01.16,0.508
2014-04-19 00:03:00,3065E-2,5C000410,-0724,1060,9954,025.2,045.2,0.000,758.3,01.16,0.508
2014-04-19 00:04:00,2980E-2,5C000410,-0724,1060,9971,025.2,045.2,0.000,758.3,01.16,0.508
2014-04-19 00:05:00,3035E-2,5C000410,-0724,1061,10056,025.2,045.2,0.000,758.2,01.16,0.508
2014-04-19 00:06:00,3052E-2,5C000410,-0724,1061,9999,025.2,045.2,0.000,758.2,01.16,0.508
2014-04-19 00:07:00,3047E-2,5C000400,-0724,1061,9978,025.3,045.2,0.000,758.3,01.16,0.508
2014-04-19 00:08:00,2990E-2,5C000400,-0724,1060,10026,025.3,045.2,0.000,758.2,01.16,0.508
2014-04-19 00:09:00,3015E-2,5C000400,-0724,1062,9933,025.3,045.2,0.000,758.2,01.16,0.508
2014-04-19 00:10:00,3058E-2,5C000410,-0724,1060,10027,025.3,045.2,0.000,758.1,01.16,0.508
2014-04-19 00:11:00,3017E-2,5C000400,-0724,1060,9896,025.3,045.2,0.000,758.1,01.16,0.508
2014-04-19 00:12:00,3036E-2,5C000410,-0724,1061,9832,025.3,045.2,0.000,758.2,01.16,0.508
2014-04-19 00:13:00,3085E-2,5C000410,-0724,1060,9901,025.3,045.2,0.000,758.1,01.16,0.508
2014-04-19 00:14:00,3066E-2,5C000410,-0724,1060,10002,025.3,045.2,0.000,758.1,01.16,0.508
2014-04-19 00:15:00,3123E-2,5C000410,-0724,1060,10090,025.3,045.2,0.000,758.1,01.16,0.508
2014-04-19 00:16:00,3056E-2,5C000410,-0724,1061,9892,025.3,045.2,0.000,758.1,01.16,0.508
2014-04-19 00:17:00,3016E-2,5C000410,-0724,1061,9926,025.4,045.2,0.000,758.0,01.16,0.508
2014-04-19 00:18:00,3073E-2,5C000410,-0724,1060,9898,025.4,045.2,0.000,758.1,01.16,0.508
2014-04-19 00:19:00,3063E-2,5C000410,-0724,1060,9809,025.4,045.2,0.000,758.1,01.16,0.508
2014-04-19 00:20:00,3019E-2,5C000410,-0724,1061,9840,025.4,045.2,0.000,758.0,01.16,0.508
2014-04-19 00:21:00,3029E-2,5C000410,-0724,1061,9953,025.4,045.2,0.000,758.0,01.16,0.508
2014-04-19 00:22:00,3061E-2,5C000410,-0724,1061,9873,025.4,045.2,0.000,758.1,01.16,0.508
2014-04-19 00:23:00,3048E-2,5C000410,-0724,1060,9999,025.4,045.2,0.000,758.1,01.16,0.508
2014-04-19 00:24:00,3100E-2,5C000410,-0724,1060,10008,025.4,045.2,0.000,758.1,01.16,0.508
2014-04-19 00:25:00,3071E-2,5C000410,-0724,1061,9862,025.4,045.2,0.000,758.1,01.16,0.508
2014-04-19 00:26:00,3051E-2,5C000410,-0724,1061,9974,025.4,045.3,0.000,758.0,01.16,0.508
2014-04-19 00:27:00,3049E-2,5C000410,-0724,1061,9830,025.4,045.2,0.000,758.0,01.16,0.508
2014-04-19 00:28:00,3115E-2,5C000410,-0724,1061,9932,025.5,045.2,0.000,758.1,01.16,0.508
2014-04-19 00:29:00,3027E-2,5C000410,-0724,1061,10020,025.5,045.2,0.000,758.1,01.16,0.508
2014-04-19 00:30:00,3073E-2,5C000400,-0724,1060,9972,025.5,045.2,0.000,758.1,01.16,0.508
2014-04-19 00:31:00,3096E-2,5C000410,-0724,1061,9839,025.5,045.2,0.000,758.1,01.16,0.508
2014-04-19 00:32:00,3065E-2,5C000400,-0724,1059,9862,025.5,045.2,0.000,758.1,01.16,0.508
2014-04-19 00:33:00,2957E-2,5C000410,-0724,1061,9860,025.5,045.2,0.000,758.0,01.16,0.508
2014-04-19 00:34:00,2996E-2,5C000410,-0724,1060,9764,025.5,045.2,0.000,758.0,01.16,0.508
2014-04-19 00:35:00,2988E-2,5C000400,-0724,1061,9959,025.5,045.2,0.000,758.1,01.16,0.508
2014-04-19 00:36:00,2974E-2,5C000410,-0724,1061,9782,025.5,045.2,0.000,758.1,01.16,0.508
2014-04-19 00:37:00,2968E-2,5C000410,-0724,1061,9871,025.5,045.2,0.000,758.1,01.16,0.508
2014-04-19 00:38:00,2976E-2,5C000410,-0724,1061,9925,025.5,045.2,0.000,758.1,01.16,0.508
2014-04-19 00:39:00,3021E-2,5C000410,-0724,1061,9912,025.5,045.2,0.000,758.1,01.16,0.508
2014-04-19 00:40:00,2982E-2,5C000410,-0724,1060,9907,025.5,045.2,0.000,758.1,01.16,0.508
2014-04-19 00:41:00,2993E-2,5C000410,-0724,1060,9831,025.6,045.2,0.000,758.1,01.16,0.508
2014-04-19 00:42:00,2959E-2,5C000400,-0724,1061,10012,025.6,045.2,0.000,758.1,01.16,0.508
2014-04-19 00:43:00,2998E-2,5C000410,-0724,1061,9793,025.6,045.2,0.000,758.1,01.16,0.508
2014-04-19 00:44:00,2989E-2,5C000400,-0724,1061,9787,025.5,045.2,0.000,758.2,01.16,0.508
2014-04-19 00:45:00,3002E-2,5C000410,-0724,1061,9881,025.6,045.2,0.000,758.1,01.16,0.508
2014-04-19 00:46:00,3000E-2,5C000410,-0724,1060,9956,025.6,045.3,0.000,758.1,01.16,0.508
2014-04-19 00:47:00,2959E-2,5C000410,-0724,1061,9910,025.6,045.2,0.000,758.1,01.16,0.508
2014-04-19 00:48:00,3006E-2,5C000410,-0724,1060,9885,025.6,045.2,0.000,758.1,01.16,0.508
2014-04-19 00:49:00,3018E-2,5C000410,-0724,1060,9981,025.6,045.2,0.000,758.2,01.16,0.508
2014-04-19 00:50:00,2961E-2,5C000410,-0724,1060,9965,025.6,045.2,0.000,758.1,01.16,0.508
2014-04-19 00:51:00,3035E-2,5C000410,-0724,1062,9968,025.6,045.2,0.000,758.1,01.16,0.508
2014-04-19 00:52:00,3003E-2,5C000410,-0724,1061,10015,025.6,045.2,0.000,758.2,01.16,0.508
2014-04-19 00:53:00,3011E-2,5C000410,-0724,1061,9925,025.6,045.2,0.000,758.1,01.16,0.508
2014-04-19 00:54:00,2973E-2,5C000410,-0724,1061,9923,025.6,045.2,0.000,758.1,01.16,0.508
2014-04-19 00:55:00,2999E-2,5C000410,-0724,1061,9707,025.6,045.2,0.000,758.1,01.16,0.508
2014-04-19 00:56:00,2994E-2,5C000410,-0724,1061,9871,025.7,045.2,0.000,758.1,01.16,0.508
2014-04-19 00:57:00,2993E-2,5C000410,-0724,1062,9945,025.7,045.2,0.000,758.2,01.16,0.508
2014-04-19 00:58:00,3052E-2,5C000410,-0724,1062,9917,025.7,045.2,0.000,758.1,01.16,0.508
2014-04-19 00:59:00,3001E-2,5C000410,-0724,1060,9928,025.7,045.3,0.000,758.0,01.16,0.508
2014-04-19 01:00:00,3001E-2,5C000410,-0724,1060,9916,025.7,045.2,0.000,758.1,01.16,0.508
2014-04-19 01:01:00,2997E-2,5C000410,-0724,1061,9840,025.7,045.2,0.000,758.1,01.16,0.508
2014-04-19 01:02:00,3019E-2,5C000410,-0724,1061,9937,025.7,045.2,0.000,758.1,01.16,0.508
2014-04-19 01:03:00,3026E-2,5C000410,-0724,1061,9907,025.7,045.2,0.000,758.0,01.16,0.508
2014-04-19 01:04:00,2978E-2,5C000410,-0724,1061,9939,025.7,045.2,0.000,758.0,01.16,0.508
2014-04-19 01:05:00,2980E-2,5C000410,-0724,1061,9994,025.8,045.2,0.000,758.0,01.16,0.508
2014-04-19 01:06:00,2992E-2,5C000410,-0724,1062,10011,025.8,045.2,0.000,758.0,01.16,0.508
2014-04-19 01:07:00,2999E-2,5C000400,-0724,1061,10020,025.8,045.3,0.000,758.0,01.16,0.508
2014-04-19 01:08:00,2994E-2,5C000410,-0724,1061,9965,025.8,045.2,0.000,758.0,01.16,0.508
2014-04-19 01:09:00,2994E-2,5C000400,-0724,1061,10031,025.8,045.2,0.000,758.0,01.16,0.508
2014-04-19 01:10:00,3007E-2,5C000410,-0724,1060,9944,025.8,045.2,0.000,757.9,01.16,0.508
2014-04-19 01:11:00,3019E-2,5C000410,-0724,1059,9868,025.8,045.2,0.000,757.9,01.16,0.508
2014-04-19 01:12:00,2986E-2,5C000410,-0724,1062,9915,025.8,045.2,0.000,757.9,01.16,0.508
2014-04-19 01:13:00,2978E-2,5C000410,-0724,1061,9924,025.8,045.2,0.000,757.9,01.16,0.508
2014-04-19 01:14:00,3017E-2,5C000400,-0724,1061,9844,025.8,045.2,0.000,757.9,01.16,0.508
2014-04-19 01:15:00,3033E-2,5C000400,-0724,1061,9885,025.8,045.2,0.000,757.9,01.16,0.508
2014-04-19 01:16:00,3010E-2,5C000400,-0724,1060,9781,025.8,045.2,0.000,757.8,01.16,0.508
2014-04-19 01:17:00,3009E-2,5C000410,-0724,1060,9891,025.9,045.2,0.000,757.8,01.16,0.508
2014-04-19 01:18:00,3011E-2,5C000410,-0724,1061,9809,025.9,045.2,0.000,757.8,01.16,0.508
2014-04-19 01:19:00,3043E-2,5C000400,-0724,1061,10024,025.9,045.2,0.000,757.8,01.16,0.508
2014-04-19 01:20:00,3000E-2,5C000410,-0724,1061,9733,025.9,045.2,0.000,757.9,01.16,0.508
2014-04-19 01:21:00,3032E-2,5C000410,-0724,1060,9987,025.9,045.2,0.000,757.9,01.16,0.508
2014-04-19 01:22:00,3002E-2,5C000410,-0724,1062,10026,025.9,045.2,0.000,757.8,01.16,0.508
2014-04-19 01:23:00,3010E-2,5C000400,-0724,1062,9838,025.9,045.2,0.000,757.9,01.16,0.508
2014-04-19 01:24:00,3055E-2,5C000410,-0724,1061,9917,025.9,045.2,0.000,757.9,01.16,0.508
2014-04-19 01:25:00,3038E-2,5C000410,-0724,1060,9812,025.9,045.3,0.000,757.9,01.16,0.508
2014-04-19 01:26:00,3021E-2,5C000410,-0724,1061,9866,025.9,045.3,0.000,757.9,01.16,0.508
2014-04-19 01:27:00,3014E-2,5C000400,-0724,1062,9823,026.0,045.3,0.000,757.9,01.16,0.508
2014-04-19 01:28:00,3031E-2,5C000400,-0724,1062,10059,026.0,045.2,0.000,757.9,01.16,0.508
2014-04-19 01:29:00,3038E-2,5C000410,-0724,1062,9981,026.0,045.2,0.000,757.9,01.16,0.508
2014-04-19 01:30:00,2991E-2,5C000410,-0724,1062,9954,026.0,045.2,0.000,757.8,01.16,0.508
2014-04-19 01:31:00,3009E-2,5C000400,-0724,1063,9878,026.0,045.2,0.000,757.8,01.16,0.508
2014-04-19 01:32:00,2977E-2,5C000410,-0724,1063,9835,026.0,045.2,0.000,757.8,01.16,0.508
2014-04-19 01:33:00,3005E-2,5C000400,-0724,1062,9876,026.0,045.3,0.000,757.8,01.16,0.508
2014-04-19 01:34:00,3027E-2,5C000410,-0724,1062,9786,026.0,045.2,0.000,757.8,01.16,0.508
2014-04-19 01:35:00,3027E-2,5C000410,-0724,1062,9752,026.1,045.3,0.000,757.8,01.16,0.508
2014-04-19 01:36:00,3051E-2,5C000410,-0724,1062,9868,026.0,045.2,0.000,757.8,01.16,0.508
2014-04-19 01:37:00,2926E-2,5C000410,-0724,1061,9968,026.0,045.2,0.000,757.8,01.16,0.508
2014-04-19 01:38:00,2924E-2,5C000410,-0724,1062,9921,026.1,045.3,0.000,757.8,01.16,0.508
2014-04-19 01:39:00,2955E-2,5C000410,-0724,1062,9954,026.1,045.2,0.000,757.7,01.16,0.508
2014-04-19 01:40:00,2960E-2,5C000410,-0724,1062,9904,026.1,045.2,0.000,757.7,01.16,0.508
2014-04-19 01:41:00,2977E-2,5C000410,-0724,1062,9738,026.1,045.2,0.000,757.8,01.16,0.508
2014-04-19 01:42:00,2936E-2,5C000410,-0724,1063,9967,026.1,045.2,0.000,757.7,01.16,0.508
2014-04-19 01:43:00,2994E-2,5C000400,-0724,1062,9636,026.1,045.2,0.000,757.7,01.16,0.508
2014-04-19 01:44:00,2951E-2,5C000410,-0724,1063,9978,026.1,045.3,0.000,757.8,01.16,0.508
2014-04-19 01:45:00,2938E-2,5C000410,-0724,1063,9809,026.1,045.2,0.000,757.7,01.16,0.508
2014-04-19 01:46:00,2982E-2,5C000400,-0724,1063,9840,026.1,045.2,0.000,757.7,01.16,0.508
2014-04-19 01:47:00,3004E-2,5C000410,-0724,1062,10035,026.2,045.2,0.000,757.7,01.16,0.508
2014-04-19 01:48:00,2960E-2,5C000410,-0724,1062,9909,026.2,045.2,0.000,757.7,01.16,0.508
2014-04-19 01:49:00,2968E-2,5C000410,-0724,1063,10037,026.1,045.3,0.000,757.7,01.16,0.508
2014-04-19 01:50:00,2984E-2,5C000410,-0724,1063,9808,026.2,045.2,0.000,757.6,01.16,0.508
2014-04-19 01:51:00,2896E-2,5C000400,-0724,1030,10574,026.2,045.2,0.000,757.6,01.16,0.508
2014-04-19 01:52:00,2768E-2,5C000400,-0724,1019,10286,026.2,045.3,0.000,757.7,01.16,0.508
2014-04-19 01:53:00,2758E-2,5C000400,-0724,1019,10244,026.2,045.3,0.000,757.6,01.16,0.508
2014-04-19 01:54:00,2706E-2,5C000400,-0724,1019,10079,026.2,045.3,0.000,757.6,01.16,0.508
2014-04-19 01:55:00,2710E-2,5C000400,-0724,1020,10398,026.2,045.2,0.000,757.7,01.16,0.508
2014-04-19 01:56:00,2726E-2,5C000400,-0724,1019,10157,026.3,045.2,0.000,757.6,01.16,0.508
2014-04-19 01:57:00,2746E-2,5C000400,-0724,1021,10353,026.2,045.2,0.000,757.5,01.16,0.508
2014-04-19 01:58:00,2750E-2,5C000400,-0724,1019,10234,026.3,045.2,0.000,757.6,01.16,0.508
2014-04-19 01:59:00,2778E-2,5C000400,-0724,1020,10233,026.3,045.3,0.000,757.6,01.16,0.508
2014-04-19 02:00:00,2746E-2,5C000400,-0724,1019,10278,026.3,045.2,0.000,757.5,01.16,0.508
2014-04-19 02:01:00,2773E-2,5C000400,-0724,1020,10273,026.3,045.2,0.000,757.6,01.16,0.508
2014-04-19 02:02:00,2716E-2,5C000400,-0724,1020,10423,026.3,045.3,0.000,757.7,01.16,0.508
2014-04-19 02:03:00,2752E-2,5C000400,-0724,1019,10273,026.3,045.3,0.000,757.6,01.16,0.508
2014-04-19 02:04:00,2746E-2,5C000400,-0724,1021,10416,026.3,045.3,0.000,757.6,01.16,0.508
2014-04-19 02:05:00,2767E-2,5C000400,-0724,1021,10269,026.3,045.2,0.000,757.6,01.16,0.508
2014-04-19 02:06:00,2783E-2,5C000400,-0724,1021,10281,026.3,045.3,0.000,757.6,01.16,0.508
2014-04-19 02:07:00,2728E-2,5C000400,-0724,1020,10272,026.3,045.3,0.000,757.6,01.16,0.508
2014-04-19 02:08:00,2778E-2,5C000400,-0724,1021,10345,026.4,045.2,0.000,757.5,01.16,0.508
2014-04-19 02:09:00,2771E-2,5C000400,-0724,1021,10165,026.4,045.2,0.000,757.5,01.16,0.508
2014-04-19 02:10:00,2767E-2,5C000400,-0724,1021,10389,026.4,045.2,0.000,757.6,01.16,0.508
2014-04-19 02:11:00,2770E-2,5C000400,-0724,1022,10286,026.4,045.2,0.000,757.6,01.16,0.508
2014-04-19 02:12:00,2773E-2,5C000400,-0724,1021,10378,026.4,045.3,0.000,757.6,01.16,0.508
2014-04-19 02:13:00,2753E-2,5C000400,-0724,1023,10392,026.4,045.3,0.000,757.6,01.16,0.508
2014-04-19 02:14:00,2780E-2,5C000400,-0724,1022,10348,026.4,045.2,0.000,757.6,01.16,0.508
2014-04-19 02:15:00,2758E-2,5C000400,-0724,1023,10398,026.4,045.3,0.000,757.6,01.16,0.508
2014-04-19 02:16:00,2809E-2,5C000400,-0724,1022,10247,026.4,045.3,0.000,757.6,01.16,0.508
2014-04-19 02:17:00,2788E-2,5C000400,-0724,1023,10425,026.4,045.2,0.000,757.6,01.16,0.508
2014-04-19 02:18:00,2787E-2,5C000400,-0724,1023,10235,026.4,045.3,0.000,757.6,01.16,0.508
2014-04-19 02:19:00,2753E-2,5C000400,-0724,1023,10125,026.5,045.3,0.000,757.5,01.16,0.508
2014-04-19 02:20:00,2756E-2,5C000400,-0724,1024,10349,026.5,045.3,0.000,757.4,01.16,0.508
2014-04-19 02:21:00,2780E-2,5C000400,-0724,1025,10200,026.4,045.2,0.000,757.4,01.16,0.508
2014-04-19 02:22:00,2808E-2,5C000400,-0724,1024,10384,026.5,045.3,0.000,757.4,01.16,0.508
2014-04-19 02:23:00,2766E-2,5C000400,-0724,1025,10317,026.5,045.3,0.000,757.4,01.16,0.508
2014-04-19 02:24:00,2771E-2,5C000400,-0724,1025,10441,026.5,045.2,0.000,757.4,01.16,0.508
2014-04-19 02:25:00,2803E-2,5C000400,-0724,1025,10322,026.5,045.3,0.000,757.4,01.16,0.508
2014-04-19 02:26:00,2792E-2,5C000400,-0724,1024,10280,026.5,045.2,0.000,757.4,01.16,0.508
2014-04-19 02:27:00,2818E-2,5C000400,-0724,1026,10402,026.5,045.3,0.000,757.4,01.16,0.508
2014-04-19 02:28:00,2817E-2,5C000400,-0724,1025,10283,026.5,045.2,0.000,757.4,01.16,0.508
2014-04-19 02:29:00,2788E-2,5C000400,-0724,1025,10281,026.5,045.3,0.000,757.4,01.16,0.508
2014-04-19 02:30:00,2786E-2,5C000400,-0724,1026,10311,026.5,045.3,0.000,757.3,01.16,0.508
2014-04-19 02:31:00,2784E-2,5C000400,-0724,1026,10355,026.5,045.3,0.000,757.3,01.16,0.508
2014-04-19 02:32:00,2777E-2,5C000400,-0724,1025,10363,026.5,045.3,0.000,757.4,01.16,0.508
2014-04-19 02:33:00,2775E-2,5C000400,-0724,1025,10198,026.5,045.3,0.000,757.3,01.16,0.508
2014-04-19 02:34:00,2806E-2,5C000400,-0724,1025,10281,026.5,045.3,0.000,757.2,01.16,0.508
2014-04-19 02:35:00,2775E-2,5C000400,-0724,1026,10280,026.5,045.3,0.000,757.2,01.16,0.508
2014-04-19 02:36:00,2808E-2,5C000400,-0724,1026,10246,026.6,045.3,0.000,757.2,01.16,0.508
2014-04-19 02:37:00,2800E-2,5C000400,-0724,1026,10296,026.6,045.3,0.000,757.2,01.16,0.508
2014-04-19 02:38:00,2783E-2,5C000400,-0724,1027,10353,026.6,045.3,0.000,757.1,01.16,0.508
2014-04-19 02:39:00,2783E-2,5C000400,-0724,1027,10414,026.6,045.3,0.000,757.2,01.16,0.508
2014-04-19 02:40:00,2766E-2,5C000400,-0724,1027,10330,026.6,045.3,0.000,757.2,01.16,0.508
2014-04-19 02:41:00,2796E-2,5C000400,-0724,1025,10206,026.6,045.3,0.000,757.2,01.16,0.508
2014-04-19 02:42:00,2805E-2,5C000400,-0724,1026,10268,026.6,045.3,0.000,757.1,01.16,0.508
2014-04-19 02:43:00,2753E-2,5C000400,-0724,1027,10225,026.6,045.3,0.000,757.1,01.16,0.508
2014-04-19 02:44:00,2788E-2,5C000400,-0724,1027,10218,026.6,045.3,0.000,757.0,01.16,0.508
2014-04-19 02:45:00,2854E-2,5C000400,-0724,1027,10263,026.6,045.3,0.000,757.1,01.16,0.508
2014-04-19 02:46:00,2824E-2,5C000400,-0724,1027,10267,026.6,045.3,0.000,757.1,01.16,0.508
2014-04-19 02:47:00,2802E-2,5C000400,-0724,1026,10215,026.6,045.3,0.000,757.0,01.16,0.508
2014-04-19 02:48:00,2819E-2,5C000400,-0724,1026,10209,026.6,045.3,0.000,757.0,01.16,0.508
2014-04-19 02:49:00,2800E-2,5C000400,-0724,1027,10208,026.6,045.3,0.000,756.9,01.16,0.508
2014-04-19 02:50:00,2802E-2,5C000400,-0724,1028,10211,026.6,045.2,0.000,757.0,01.16,0.508
2014-04-19 02:51:00,2827E-2,5C000400,-0724,1027,10241,026.6,045.3,0.000,756.9,01.16,0.508
2014-04-19 02:52:00,2815E-2,5C000400,-0724,1026,10249,026.6,045.2,0.000,756.9,01.16,0.508
2014-04-19 02:53:00,2812E-2,5C000400,-0724,1028,10256,026.6,045.3,0.000,756.9,01.16,0.508
2014-04-19 02:54:00,2832E-2,5C000400,-0724,1028,10301,026.6,045.3,0.000,756.8,01.16,0.508
2014-04-19 02:55:00,2853E-2,5C000400,-0724,1027,10391,026.6,045.3,0.000,756.8,01.16,0.508
2014-04-19 02:56:00,2853E-2,5C000400,-0724,1027,10157,026.6,045.3,0.000,756.8,01.16,0.508
2014-04-19 02:57:00,2810E-2,5C000400,-0724,1028,10189,026.6,045.3,0.000,756.8,01.16,0.508
2014-04-19 02:58:00,2870E-2,5C000400,-0724,1028,10295,026.7,045.3,0.000,756.8,01.16,0.508
2014-04-19 02:59:00,2818E-2,5C000400,-0724,1028,10324,026.6,045.3,0.000,756.8,01.16,0.508
2014-04-19 03:00:00,2852E-2,5C000400,-0724,1028,10325,026.6,045.3,0.000,756.8,01.16,0.508
2014-04-19 03:01:00,2868E-2,5C000400,-0724,1028,10262,026.7,045.3,0.000,756.8,01.16,0.508
2014-04-19 03:02:00,2908E-2,5C000400,-0724,1029,10194,026.6,045.3,0.000,756.7,01.16,0.508
2014-04-19 03:03:00,2796E-2,5C000400,-0724,1029,10291,026.7,045.3,0.000,756.7,01.16,0.508
2014-04-19 03:04:00,2912E-2,5C000400,-0724,1028,10139,026.7,045.3,0.000,756.7,01.16,0.508
2014-04-19 03:05:00,2850E-2,5C000400,-0724,1030,10052,026.7,045.3,0.000,756.6,01.16,0.508
2014-04-19 03:06:00,2864E-2,5C000400,-0724,1030,10257,026.7,045.3,0.000,756.6,01.16,0.508
2014-04-19 03:07:00,2851E-2,5C000400,-0724,1028,10303,026.7,045.3,0.000,756.6,01.16,0.508
2014-04-19 03:08:00,2864E-2,5C000400,-0724,1029,9998,026.7,045.2,0.000,756.6,01.16,0.508
2014-04-19 03:09:00,2842E-2,5C000400,-0724,1027,10381,026.7,045.3,0.000,756.6,01.16,0.508
2014-04-19 03:10:00,2827E-2,5C000400,-0724,1028,10318,026.7,045.3,0.000,756.6,01.16,0.508
2014-04-19 03:11:00,2838E-2,5C000400,-0724,1027,10123,026.7,045.3,0.000,756.6,01.16,0.508
2014-04-19 03:12:00,2873E-2,5C000400,-0724,1028,10371,026.7,045.3,0.000,756.5,01.16,0.508
2014-04-19 03:13:00,2859E-2,5C000400,-0724,1027,10065,026.7,045.3,0.000,756.5,01.16,0.508
2014-04-19 03:14:00,2877E-2,5C000400,-0724,1028,10210,026.7,045.2,0.000,756.5,01.16,0.508
2014-04-19 03:15:00,2865E-2,5C000400,-0724,1027,10145,026.7,045.3,0.000,756.5,01.16,0.508
2014-04-19 03:16:00,2879E-2,5C000400,-0724,1027,10152,026.7,045.3,0.000,756.4,01.16,0.508
2014-04-19 03:17:00,2820E-2,5C000400,-0724,1028,10252,026.7,045.3,0.000,756.4,01.16,0.508
2014-04-19 03:18:00,2830E-2,5C000400,-0724,1028,10272,026.7,045.2,0.000,756.4,01.16,0.508
2014-04-19 03:19:00,2852E-2,5C000400,-0724,1029,10242,026.7,045.3,0.000,756.4,01.16,0.508
2014-04-19 03:20:00,2848E-2,5C000400,-0724,1028,10236,026.7,045.3,0.000,756.4,01.16,0.508
2014-04-19 03:21:00,2873E-2,5C000400,-0724,1027,10318,026.7,045.3,0.000,756.4,01.16,0.508
2014-04-19 03:22:00,2854E-2,5C000400,-0724,1029,10363,026.8,045.3,0.000,756.4,01.16,0.508
2014-04-19 03:23:00,2861E-2,5C000400,-0724,1027,10280,026.8,045.3,0.000,756.4,01.16,0.508
2014-04-19 03:24:00,2874E-2,5C000400,-0724,1029,10311,026.8,045.3,0.000,756.4,01.16,0.508
2014-04-19 03:25:00,2853E-2,5C000400,-0724,1028,10244,026.8,045.3,0.000,756.3,01.16,0.508
2014-04-19 03:26:00,2871E-2,5C000400,-0724,1028,10298,026.8,045.3,0.000,756.4,01.16,0.508
2014-04-19 03:27:00,2869E-2,5C000400,-0724,1028,10163,026.8,045.3,0.000,756.4,01.16,0.508
2014-04-19 03:28:00,2822E-2,5C000400,-0724,1028,10266,026.8,045.3,0.000,756.3,01.16,0.508
2014-04-19 03:29:00,2885E-2,5C000400,-0724,1027,10226,026.8,045.3,0.000,756.3,01.16,0.508
2014-04-19 03:30:00,2887E-2,5C000400,-0724,1028,10213,026.8,045.3,0.000,756.3,01.16,0.508
2014-04-19 03:31:00,2860E-2,5C000400,-0724,1028,10193,026.8,045.3,0.000,756.3,01.16,0.508
2014-04-19 03:32:00,2821E-2,5C000400,-0724,1027,10299,026.8,045.3,0.000,756.4,01.16,0.508
2014-04-19 03:33:00,2873E-2,5C000400,-0724,1027,10348,026.8,045.3,0.000,756.3,01.16,0.508
2014-04-19 03:34:00,2801E-2,5C000400,-0724,1027,10215,026.8,045.3,0.000,756.3,01.16,0.508
2014-04-19 03:35:00,2802E-2,5C000400,-0724,1028,10356,026.8,045.3,0.000,756.3,01.16,0.508
2014-04-19 03:36:00,2840E-2,5C000400,-0724,1027,10358,026.8,045.3,0.000,756.3,01.16,0.508
2014-04-19 03:37:00,2882E-2,5C000400,-0724,1028,10272,026.8,045.3,0.000,756.2,01.16,0.508
2014-04-19 03:38:00,2793E-2,5C000400,-0724,1028,10262,026.8,045.3,0.000,756.3,01.16,0.508
2014-04-19 03:39:00,2824E-2,5C000400,-0724,1028,10188,026.8,045.2,0.000,756.3,01.16,0.508
2014-04-19 03:40:00,2785E-2,5C000400,-0724,1029,10259,026.8,045.3,0.000,756.3,01.16,0.508
2014-04-19 03:41:00,2829E-2,5C000400,-0724,1029,10248,026.8,045.3,0.000,756.2,01.16,0.508
2014-04-19 03:42:00,2807E-2,5C000400,-0724,1028,10215,026.8,045.3,0.000,756.2,01.16,0.508
2014-04-19 03:43:00,2832E-2,5C000400,-0724,1029,10183,026.8,045.3,0.000,756.2,01.16,0.508
2014-04-19 03:44:00,2810E-2,5C000400,-0724,1028,10212,026.8,045.3,0.000,756.2,01.16,0.508
2014-04-19 03:45:00,2837E-2,5C000400,-0724,1028,10060,026.8,045.2,0.000,756.2,01.16,0.508
2014-04-19 03:46:00,2840E-2,5C000400,-0724,1029,10169,026.8,045.3,0.000,756.1,01.16,0.508
2014-04-19 03:47:00,2828E-2,5C000400,-0724,1027,10293,026.8,045.3,0.000,756.1,01.16,0.508
2014-04-19 03:48:00,2867E-2,5C000400,-0724,1029,9955,026.9,045.3,0.000,756.0,01.16,0.508
2014-04-19 03:49:00,2788E-2,5C000400,-0724,1028,10389,026.9,045.3,0.000,756.0,01.16,0.508
2014-04-19 03:50:00,2810E-2,5C000400,-0724,1028,10024,026.9,045.3,0.000,756.0,01.16,0.508
2014-04-19 03:51:00,2806E-2,5C000400,-0724,1028,10241,026.9,045.3,0.000,755.9,01.16,0.508
2014-04-19 03:52:00,2821E-2,5C000400,-0724,1029,10194,026.9,045.3,0.000,755.9,01.16,0.508
2014-04-19 03:53:00,2820E-2,5C000400,-0724,1028,10311,026.9,045.3,0.000,755.9,01.16,0.508
2014-04-19 03:54:00,2851E-2,5C000400,-0724,1028,10108,026.9,045.3,0.000,755.8,01.16,0.508
2014-04-19 03:55:00,2796E-2,5C000400,-0724,1028,10303,026.9,045.3,0.000,755.8,01.16,0.508
2014-04-19 03:56:00,2902E-2,5C000400,-0724,1028,10240,026.9,045.3,0.000,755.8,01.16,0.508
2014-04-19 03:57:00,2871E-2,5C000400,-0724,1029,10207,026.9,045.3,0.000,755.8,01.16,0.508
2014-04-19 03:58:00,2850E-2,5C000400,-0724,1027,10325,026.9,045.3,0.000,755.8,01.16,0.508
2014-04-19 03:59:00,2841E-2,5C000400,-0724,1028,10229,026.9,045.3,0.000,755.8,01.16,0.508
2014-04-19 04:00:00,2870E-2,5C000400,-0724,1028,10280,027.0,045.3,0.000,755.7,01.16,0.508
2014-04-19 04:01:00,2838E-2,5C000400,-0724,1028,10009,026.9,045.3,0.000,755.7,01.16,0.508
2014-04-19 04:02:00,2867E-2,5C000400,-0724,1027,10358,027.0,045.3,0.000,755.7,01.16,0.508
2014-04-19 04:03:00,2866E-2,5C000000,-0724,1027,10249,027.0,045.3,0.384,755.7,01.16,0.508
2014-04-19 04:04:00,2855E-2,5C000000,-0724,1028,10222,026.9,045.3,0.371,755.6,01.16,0.508
2014-04-19 04:05:00,2909E-2,5C000000,-0724,1028,10246,027.0,045.3,0.366,755.6,01.16,0.508
2014-04-19 04:06:00,2869E-2,5C000000,-0724,1028,10232,027.0,045.3,0.353,755.6,01.16,0.508
2014-04-19 04:07:00,2877E-2,5C000000,-0724,1028,10323,027.0,045.3,0.356,755.6,01.16,0.508
2014-04-19 04:08:00,2855E-2,5C000000,-0724,1029,10309,027.0,045.3,0.359,755.7,01.16,0.508
2014-04-19 04:09:00,2854E-2,5C000000,-0724,1028,10193,027.0,045.3,0.342,755.6,01.16,0.508
2014-04-19 04:10:00,2884E-2,5C000000,-0724,1029,10300,027.0,045.3,0.334,755.6,01.16,0.508
2014-04-19 04:11:00,2857E-2,5C000000,-0724,1028,10174,027.0,045.3,0.322,755.5,01.16,0.508
2014-04-19 04:12:00,2939E-2,5C000000,-0724,1029,10335,027.0,045.3,0.317,755.6,01.16,0.508
2014-04-19 04:13:00,2889E-2,5C000000,-0724,1030,10082,027.0,045.3,0.309,755.5,01.16,0.508
2014-04-19 04:14:00,2908E-2,5C000000,-0724,1029,10286,027.0,045.3,0.301,755.5,01.16,0.508
2014-04-19 04:15:00,2870E-2,5C000000,-0724,1029,10159,027.0,045.3,0.302,755.5,01.16,0.508
2014-04-19 04:16:00,2904E-2,5C000000,-0724,1029,10249,027.0,045.3,0.298,755.5,01.16,0.508
2014-04-19 04:17:00,2888E-2,5C000400,-0724,1029,10167,027.0,045.3,0.272,755.4,01.16,0.508
2014-04-19 04:18:00,2887E-2,5C000400,-0724,1030,10181,027.0,045.3,0.268,755.4,01.16,0.508
2014-04-19 04:19:00,2878E-2,5C000400,-0724,1028,10215,027.0,045.3,0.269,755.5,01.16,0.508
2014-04-19 04:20:00,2875E-2,5C000400,-0724,1029,10248,027.0,045.3,0.242,755.4,01.16,0.508
2014-04-19 04:21:00,2877E-2,5C000400,-0724,1028,10298,027.0,045.3,0.224,755.4,01.16,0.508